Cordova, AK

6:49 AM AKDT on March 27, 2017 (GMT -0800)
Cordova-Smith

Weather History for PACV - February, 2013

Change the Weather History Date:

Friday, February 8, 2013

  Actual Average Record
Temperature  
Mean Temperature 36 °F -  
Max Temperature 39 °F 34 °F 46 °F (2012)
Min Temperature 33 °F 19 °F -14 °F (1951)
Degree Days  
Heating Degree Days 29    
Moisture  
Dew Point 33 °F    
Average Humidity 90    
Maximum Humidity 100    
Minimum Humidity 76    
Precipitation  
Precipitation 0.08 in - - ()
Snow  
Snow 0.00 in - - ()
Snow Depth 7.00 in    
Sea Level Pressure  
Sea Level Pressure 29.68 in    
Wind  
Wind Speed 4 mph (East)    
Max Wind Speed 9 mph    
Max Gust Speed -    
Visibility 8 miles    
Events Fog , Rain    
Averages and records for this station are not official NWS values.
T = Trace of Precipitation, MM = Missing Value Source: NWS Daily Summary

Daily Weather History Graph

Daily Weather History Graph

Search for Another Location

Airport or City:

Trip Planner

Search our weather history database for the weather conditions in past years. The results will help you decide how hot, cold, wet, or windy it might be!

Date:

Astronomy

Feb. 08, 2013 Rise Set
Actual Time 8:39 AM AKST 5:13 PM AKST
Civil Twilight 7:53 AM AKST 6:00 PM AKST
Nautical Twilight 7:03 AM AKST 6:50 PM AKST
Astronomical Twilight 6:14 AM AKST 7:39 PM AKST
Moon 7:26 AM AKST (2/8) 3:51 PM AKST (2/8)
Length of Visible Light 10h 06m
Length of Day
8h 34m
Waning Crescent, 3% of the Moon is Illuminated
Feb 8
Waning Crescent
Feb 9
New
Feb 17
First Quarter
Feb 25
Full
Mar 4
Last Quarter

Hourly Weather History & Observations

Time (AKST) Temp. Windchill Dew Point Humidity Pressure Visibility Wind Dir Wind Speed Gust Speed Precip Events Conditions
12:53 AM 35.1 °F 28.6 °F 32.0 °F 89% 29.45 in 6.0 mi East 8.1 mph - 0.02 in Rain Light Rain
1:53 AM 35.1 °F 27.9 °F 32.0 °F 89% 29.45 in 10.0 mi East 9.2 mph - 0.02 in Rain Light Rain
2:53 AM 34.0 °F - 32.0 °F 92% 29.46 in 10.0 mi Calm Calm - 0.01 in Rain Light Rain
3:42 AM 35.6 °F 31.7 °F 33.8 °F 93% 29.47 in 10.0 mi East 4.6 mph - 0.00 in   Overcast
3:53 AM 35.1 °F 30.1 °F 33.1 °F 92% 29.47 in 10.0 mi ENE 5.8 mph - 0.00 in   Overcast
4:12 AM 35.6 °F 32.8 °F 33.8 °F 93% 29.48 in 10.0 mi ENE 3.5 mph - N/A   Overcast
4:53 AM 35.1 °F 31.0 °F 33.1 °F 92% 29.49 in 10.0 mi East 4.6 mph - 0.00 in Rain Light Rain
5:53 AM 35.1 °F 31.0 °F 33.1 °F 92% 29.51 in 7.0 mi East 4.6 mph - 0.00 in   Overcast
6:30 AM 35.6 °F 31.7 °F 33.8 °F 93% 29.51 in 10.0 mi East 4.6 mph - 0.00 in Rain Light Rain
6:46 AM 35.6 °F - 33.8 °F 93% 29.52 in 10.0 mi Calm Calm - 0.00 in Rain Light Rain
6:53 AM 35.1 °F - 33.1 °F 92% 29.52 in 10.0 mi Calm Calm - 0.00 in   Overcast
7:15 AM 35.6 °F - 33.8 °F 93% 29.54 in 6.0 mi Calm Calm - 0.00 in Rain Light Rain
7:53 AM 35.1 °F - 33.1 °F 92% 29.56 in 8.0 mi Calm Calm - 0.01 in Rain Light Rain
8:53 AM 35.1 °F 32.2 °F 34.0 °F 96% 29.60 in 6.0 mi ESE 3.5 mph - 0.00 in   Overcast
9:06 AM 35.6 °F - 33.8 °F 93% 29.61 in 2.5 mi Calm Calm - N/A   Overcast
9:18 AM 33.8 °F 27.7 °F 33.8 °F 100% 29.62 in 5.0 mi West 6.9 mph - N/A   Overcast
9:31 AM 35.6 °F - 33.8 °F 93% 29.63 in 1.8 mi Calm Calm - 0.01 in Rain Light Rain
9:44 AM 33.8 °F - 33.8 °F 100% 29.63 in 10.0 mi Calm Calm - 0.01 in   Scattered Clouds
9:53 AM 35.1 °F - 34.0 °F 96% 29.64 in 10.0 mi Calm Calm - 0.01 in   Scattered Clouds
10:30 AM 33.8 °F 30.8 °F 33.8 °F 100% 29.67 in 0.5 mi South 3.5 mph - N/A Fog Fog
10:38 AM 35.6 °F - 35.6 °F 100% 29.67 in 6.0 mi Calm Calm - N/A   Scattered Clouds
10:53 AM 35.1 °F - 34.0 °F 96% 29.68 in 10.0 mi Calm Calm - N/A   Scattered Clouds
11:53 AM 39.0 °F - 34.0 °F 82% 29.71 in 10.0 mi Calm Calm - N/A   Scattered Clouds
12:53 PM 37.9 °F - 34.0 °F 86% 29.74 in 10.0 mi Calm Calm - N/A   Scattered Clouds
1:53 PM 37.9 °F 35.5 °F 32.0 °F 79% 29.78 in 10.0 mi East 3.5 mph - N/A   Scattered Clouds
2:53 PM 37.0 °F 34.5 °F 33.1 °F 86% 29.80 in 10.0 mi East 3.5 mph - N/A   Overcast
3:45 PM 37.4 °F 34.9 °F 33.8 °F 87% 29.83 in 9.0 mi ENE 3.5 mph - 0.00 in Rain Light Rain
3:53 PM 36.0 °F - 32.0 °F 86% 29.83 in 10.0 mi Calm Calm - 0.00 in Rain Light Rain
4:53 PM 36.0 °F 32.1 °F 32.0 °F 86% 29.85 in 10.0 mi East 4.6 mph - 0.00 in   Mostly Cloudy
5:21 PM 33.8 °F - 32.0 °F 93% 29.86 in 4.0 mi Calm Calm - 0.01 in Rain Light Rain
5:53 PM 35.1 °F 31.0 °F 32.0 °F 89% 29.86 in 10.0 mi NE 4.6 mph - 0.01 in   Overcast
6:15 PM 35.6 °F 31.7 °F 32.0 °F 87% 29.87 in 10.0 mi ENE 4.6 mph - N/A   Overcast
6:53 PM 34.0 °F - 30.9 °F 89% 29.88 in 10.0 mi Calm Calm - N/A   Scattered Clouds
7:53 PM 36.0 °F 31.1 °F 32.0 °F 86% 29.90 in 10.0 mi ESE 5.8 mph - 0.00 in   Overcast
8:53 PM 36.0 °F 31.1 °F 33.1 °F 89% 29.91 in 10.0 mi ENE 5.8 mph - 0.00 in   Overcast
9:53 PM 37.0 °F 34.5 °F 32.0 °F 82% 29.91 in 10.0 mi ENE 3.5 mph - N/A   Overcast
10:53 PM 37.0 °F 33.3 °F 30.0 °F 76% 29.91 in 10.0 mi East 4.6 mph - N/A   Mostly Cloudy
11:53 PM 37.0 °F 33.3 °F 30.0 °F 76% 29.89 in 10.0 mi East 4.6 mph - N/A   Mostly Cloudy